[{"OBJECT_NAME":"KUIPER-00087","OBJECT_ID":"2025-151T","EPOCH":"2026-09-11T23:52:45.877152","MEAN_MOTION":14.79983489,"ECCENTRICITY":0.0001217,"INCLINATION":51.899,"RA_OF_ASC_NODE":176.7259,"ARG_OF_PERICENTER":68.6508,"MEAN_ANOMALY":291.4584,"EPHEMERIS_TYPE":0,"CLASSIFICATION_TYPE":"U","NORAD_CAT_ID":64833,"ELEMENT_SET_NO":999,"REV_AT_EPOCH":6316,"BSTAR":0.00037711,"MEAN_MOTION_DOT":0.00002658,"MEAN_MOTION_DDOT":0},{"OBJECT_NAME":"KUIPER-00089","OBJECT_ID":"2025-151U","EPOCH":"2026-09-11T23:45:15.964704","MEAN_MOTION":14.79926761,"ECCENTRICITY":0.000057,"INCLINATION":51.8996,"RA_OF_ASC_NODE":181.7765,"ARG_OF_PERICENTER":98.7696,"MEAN_ANOMALY":261.333,"EPHEMERIS_TYPE":0,"CLASSIFICATION_TYPE":"U","NORAD_CAT_ID":64834,"ELEMENT_SET_NO":999,"REV_AT_EPOCH":6310,"BSTAR":0.00013565,"MEAN_MOTION_DOT":0.00000813,"MEAN_MOTION_DDOT":0},{"OBJECT_NAME":"KUIPER-00090","OBJECT_ID":"2025-151V","EPOCH":"2026-09-11T23:56:53.876256","MEAN_MOTION":14.79931069,"ECCENTRICITY":0.0000961,"INCLINATION":51.8988,"RA_OF_ASC_NODE":174.2354,"ARG_OF_PERICENTER":94.6873,"MEAN_ANOMALY":265.4199,"EPHEMERIS_TYPE":0,"CLASSIFICATION_TYPE":"U","NORAD_CAT_ID":64835,"ELEMENT_SET_NO":999,"REV_AT_EPOCH":6320,"BSTAR":0.00036949,"MEAN_MOTION_DOT":0.00002596,"MEAN_MOTION_DDOT":0},{"OBJECT_NAME":"KUIPER-00091","OBJECT_ID":"2025-151W","EPOCH":"2026-09-11T23:49:08.658912","MEAN_MOTION":14.79932819,"ECCENTRICITY":0.0000969,"INCLINATION":51.9013,"RA_OF_ASC_NODE":179.2865,"ARG_OF_PERICENTER":85.812,"MEAN_ANOMALY":274.2953,"EPHEMERIS_TYPE":0,"CLASSIFICATION_TYPE":"U","NORAD_CAT_ID":64836,"ELEMENT_SET_NO":999,"REV_AT_EPOCH":6313,"BSTAR":0.00020166,"MEAN_MOTION_DOT":0.00001316,"MEAN_MOTION_DDOT":0},{"OBJECT_NAME":"KUIPER-00092","OBJECT_ID":"2025-151X","EPOCH":"2026-09-12T02:51:59.107104","MEAN_MOTION":14.79929033,"ECCENTRICITY":0.0001335,"INCLINATION":51.9021,"RA_OF_ASC_NODE":186.2115,"ARG_OF_PERICENTER":81.5664,"MEAN_ANOMALY":278.5449,"EPHEMERIS_TYPE":0,"CLASSIFICATION_TYPE":"U","NORAD_CAT_ID":64837,"ELEMENT_SET_NO":999,"REV_AT_EPOCH":6426,"BSTAR":0.00017722,"MEAN_MOTION_DOT":0.0000113,"MEAN_MOTION_DDOT":0},{"OBJECT_NAME":"KUIPER-00093","OBJECT_ID":"2025-151Y","EPOCH":"2026-09-11T23:33:35.280576","MEAN_MOTION":14.79925444,"ECCENTRICITY":0.0000361,"INCLINATION":51.9021,"RA_OF_ASC_NODE":189.2924,"ARG_OF_PERICENTER":71.2831,"MEAN_ANOMALY":288.817,"EPHEMERIS_TYPE":0,"CLASSIFICATION_TYPE":"U","NORAD_CAT_ID":64838,"ELEMENT_SET_NO":999,"REV_AT_EPOCH":6299,"BSTAR":-0.000090276,"MEAN_MOTION_DOT":-0.00000909,"MEAN_MOTION_DDOT":0},{"OBJECT_NAME":"KUIPER-00094","OBJECT_ID":"2025-151Z","EPOCH":"2026-09-12T02:20:46.178016","MEAN_MOTION":14.79933241,"ECCENTRICITY":0.0001151,"INCLINATION":51.9027,"RA_OF_ASC_NODE":143.8926,"ARG_OF_PERICENTER":90.8976,"MEAN_ANOMALY":269.2119,"EPHEMERIS_TYPE":0,"CLASSIFICATION_TYPE":"U","NORAD_CAT_ID":64839,"ELEMENT_SET_NO":999,"REV_AT_EPOCH":6364,"BSTAR":0.00034388,"MEAN_MOTION_DOT":0.00002401,"MEAN_MOTION_DDOT":0},{"OBJECT_NAME":"KUIPER-00081","OBJECT_ID":"2025-171A","EPOCH":"2026-09-12T02:30:12.072096","MEAN_MOTION":14.79925955,"ECCENTRICITY":0.0000452,"INCLINATION":51.9012,"RA_OF_ASC_NODE":43.7458,"ARG_OF_PERICENTER":104.9402,"MEAN_ANOMALY":255.161,"EPHEMERIS_TYPE":0,"CLASSIFICATION_TYPE":"U","NORAD_CAT_ID":65132,"ELEMENT_SET_NO":999,"REV_AT_EPOCH":6064,"BSTAR":0.000051342,"MEAN_MOTION_DOT":0.0000017,"MEAN_MOTION_DDOT":0},{"OBJECT_NAME":"KUIPER-00088","OBJECT_ID":"2025-171B","EPOCH":"2026-09-11T17:56:47.875776","MEAN_MOTION":14.79932121,"ECCENTRICITY":0.00006217,"INCLINATION":51.8991,"RA_OF_ASC_NODE":62.8225,"ARG_OF_PERICENTER":110.4532,"MEAN_ANOMALY":249.6497,"EPHEMERIS_TYPE":0,"CLASSIFICATION_TYPE":"U","NORAD_CAT_ID":65133,"ELEMENT_SET_NO":999,"REV_AT_EPOCH":6034,"BSTAR":0.0003188764,"MEAN_MOTION_DOT":0.00002211,"MEAN_MOTION_DDOT":0},{"OBJECT_NAME":"KUIPER-00095","OBJECT_ID":"2025-171C","EPOCH":"2026-09-11T16:50:37.884768","MEAN_MOTION":14.79925784,"ECCENTRICITY":0.00006339,"INCLINATION":51.8993,"RA_OF_ASC_NODE":43.0634,"ARG_OF_PERICENTER":118.117,"MEAN_ANOMALY":241.9856,"EPHEMERIS_TYPE":0,"CLASSIFICATION_TYPE":"U","NORAD_CAT_ID":65134,"ELEMENT_SET_NO":999,"REV_AT_EPOCH":6061,"BSTAR":0.000062586079,"MEAN_MOTION_DOT":0.00000256,"MEAN_MOTION_DDOT":0},{"OBJECT_NAME":"KUIPER-00096","OBJECT_ID":"2025-171D","EPOCH":"2026-09-11T15:42:35.153856","MEAN_MOTION":14.79927649,"ECCENTRICITY":0.00006363,"INCLINATION":51.8994,"RA_OF_ASC_NODE":55.7275,"ARG_OF_PERICENTER":129.3714,"MEAN_ANOMALY":230.7305,"EPHEMERIS_TYPE":0,"CLASSIFICATION_TYPE":"U","NORAD_CAT_ID":65135,"ELEMENT_SET_NO":999,"REV_AT_EPOCH":6043,"BSTAR":0.000017157043,"MEAN_MOTION_DOT":-9e-7,"MEAN_MOTION_DDOT":0},{"OBJECT_NAME":"KUIPER-00097","OBJECT_ID":"2025-171E","EPOCH":"2026-09-11T17:15:57.964896","MEAN_MOTION":14.79935832,"ECCENTRICITY":0.00005369,"INCLINATION":51.9005,"RA_OF_ASC_NODE":58.111,"ARG_OF_PERICENTER":96.0035,"MEAN_ANOMALY":264.0989,"EPHEMERIS_TYPE":0,"CLASSIFICATION_TYPE":"U","NORAD_CAT_ID":65136,"ELEMENT_SET_NO":999,"REV_AT_EPOCH":6039,"BSTAR":0.00033398799,"MEAN_MOTION_DOT":0.00002326,"MEAN_MOTION_DDOT":0},{"OBJECT_NAME":"KUIPER-00098","OBJECT_ID":"2025-171F","EPOCH":"2026-09-11T17:12:03.981600","MEAN_MOTION":14.7993264,"ECCENTRICITY":0.00006361,"INCLINATION":51.8991,"RA_OF_ASC_NODE":60.4815,"ARG_OF_PERICENTER":119.0054,"MEAN_ANOMALY":241.0972,"EPHEMERIS_TYPE":0,"CLASSIFICATION_TYPE":"U","NORAD_CAT_ID":65137,"ELEMENT_SET_NO":999,"REV_AT_EPOCH":5971,"BSTAR":0.00031867994,"MEAN_MOTION_DOT":0.00002209,"MEAN_MOTION_DDOT":0},{"OBJECT_NAME":"KUIPER-00099","OBJECT_ID":"2025-171G","EPOCH":"2026-09-11T15:01:44.875776","MEAN_MOTION":14.79930192,"ECCENTRICITY":0.00003712,"INCLINATION":51.9035,"RA_OF_ASC_NODE":50.897,"ARG_OF_PERICENTER":90.239,"MEAN_ANOMALY":269.8615,"EPHEMERIS_TYPE":0,"CLASSIFICATION_TYPE":"U","NORAD_CAT_ID":65138,"ELEMENT_SET_NO":999,"REV_AT_EPOCH":6049,"BSTAR":0.000098422853,"MEAN_MOTION_DOT":0.00000529,"MEAN_MOTION_DDOT":0},{"OBJECT_NAME":"KUIPER-00100","OBJECT_ID":"2025-171H","EPOCH":"2026-09-12T03:14:55.949856","MEAN_MOTION":14.79926293,"ECCENTRICITY":0.0000497,"INCLINATION":51.9027,"RA_OF_ASC_NODE":46.1101,"ARG_OF_PERICENTER":101.9667,"MEAN_ANOMALY":258.1351,"EPHEMERIS_TYPE":0,"CLASSIFICATION_TYPE":"U","NORAD_CAT_ID":65139,"ELEMENT_SET_NO":999,"REV_AT_EPOCH":6060,"BSTAR":0.000068586,"MEAN_MOTION_DOT":0.00000302,"MEAN_MOTION_DDOT":0},{"OBJECT_NAME":"KUIPER-00102","OBJECT_ID":"2025-171J","EPOCH":"2026-09-11T17:27:35.443584","MEAN_MOTION":14.79927367,"ECCENTRICITY":0.0000813,"INCLINATION":51.8991,"RA_OF_ASC_NODE":50.3842,"ARG_OF_PERICENTER":136.4383,"MEAN_ANOMALY":223.6644,"EPHEMERIS_TYPE":0,"CLASSIFICATION_TYPE":"U","NORAD_CAT_ID":65140,"ELEMENT_SET_NO":999,"REV_AT_EPOCH":6050,"BSTAR":-0.000016715,"MEAN_MOTION_DOT":-0.00000349,"MEAN_MOTION_DDOT":0},{"OBJECT_NAME":"KUIPER-00103","OBJECT_ID":"2025-171K","EPOCH":"2026-09-11T16:11:46.559616","MEAN_MOTION":14.7992714,"ECCENTRICITY":0.00007095,"INCLINATION":51.8999,"RA_OF_ASC_NODE":68.1206,"ARG_OF_PERICENTER":111.5481,"MEAN_ANOMALY":248.5557,"EPHEMERIS_TYPE":0,"CLASSIFICATION_TYPE":"U","NORAD_CAT_ID":65141,"ELEMENT_SET_NO":999,"REV_AT_EPOCH":6025,"BSTAR":0.000011630703,"MEAN_MOTION_DOT":-0.00000132,"MEAN_MOTION_DDOT":0},{"OBJECT_NAME":"KUIPER-00104","OBJECT_ID":"2025-171L","EPOCH":"2026-09-12T03:51:54.949824","MEAN_MOTION":14.79924371,"ECCENTRICITY":0.0000608,"INCLINATION":51.9027,"RA_OF_ASC_NODE":53.4864,"ARG_OF_PERICENTER":111.247,"MEAN_ANOMALY":248.8558,"EPHEMERIS_TYPE":0,"CLASSIFICATION_TYPE":"U","NORAD_CAT_ID":65142,"ELEMENT_SET_NO":999,"REV_AT_EPOCH":6050,"BSTAR":0.00016085,"MEAN_MOTION_DOT":0.00001005,"MEAN_MOTION_DDOT":0},{"OBJECT_NAME":"KUIPER-00105","OBJECT_ID":"2025-171M","EPOCH":"2026-09-11T18:45:26.152416","MEAN_MOTION":14.79927146,"ECCENTRICITY":0.0000596,"INCLINATION":51.9012,"RA_OF_ASC_NODE":62.7577,"ARG_OF_PERICENTER":102.2106,"MEAN_ANOMALY":257.8923,"EPHEMERIS_TYPE":0,"CLASSIFICATION_TYPE":"U","NORAD_CAT_ID":65143,"ELEMENT_SET_NO":999,"REV_AT_EPOCH":6034,"BSTAR":0.0000397,"MEAN_MOTION_DOT":8.2e-7,"MEAN_MOTION_DDOT":0},{"OBJECT_NAME":"KUIPER-00106","OBJECT_ID":"2025-171N","EPOCH":"2026-09-11T16:40:24.285792","MEAN_MOTION":14.79920351,"ECCENTRICITY":0.00007622,"INCLINATION":51.902,"RA_OF_ASC_NODE":41.9093,"ARG_OF_PERICENTER":100.4599,"MEAN_ANOMALY":259.6449,"EPHEMERIS_TYPE":0,"CLASSIFICATION_TYPE":"U","NORAD_CAT_ID":65144,"ELEMENT_SET_NO":999,"REV_AT_EPOCH":6063,"BSTAR":0.0003465475,"MEAN_MOTION_DOT":0.00002421,"MEAN_MOTION_DDOT":0},{"OBJECT_NAME":"KUIPER-00107","OBJECT_ID":"2025-171P","EPOCH":"2026-09-11T19:12:35.919072","MEAN_MOTION":14.7992611,"ECCENTRICITY":0.00005895,"INCLINATION":51.9015,"RA_OF_ASC_NODE":45.1156,"ARG_OF_PERICENTER":106.6162,"MEAN_ANOMALY":253.4866,"EPHEMERIS_TYPE":0,"CLASSIFICATION_TYPE":"U","NORAD_CAT_ID":65145,"ELEMENT_SET_NO":999,"REV_AT_EPOCH":6059,"BSTAR":0.000023154695,"MEAN_MOTION_DOT":-4.5e-7,"MEAN_MOTION_DDOT":0},{"OBJECT_NAME":"KUIPER-00108","OBJECT_ID":"2025-171Q","EPOCH":"2026-09-11T18:04:34.121280","MEAN_MOTION":14.79936861,"ECCENTRICITY":0.00005825,"INCLINATION":51.9025,"RA_OF_ASC_NODE":57.8713,"ARG_OF_PERICENTER":117.2578,"MEAN_ANOMALY":242.8444,"EPHEMERIS_TYPE":0,"CLASSIFICATION_TYPE":"U","NORAD_CAT_ID":65146,"ELEMENT_SET_NO":999,"REV_AT_EPOCH":6041,"BSTAR":0.00032486386,"MEAN_MOTION_DOT":0.00002256,"MEAN_MOTION_DDOT":0},{"OBJECT_NAME":"KUIPER-00109","OBJECT_ID":"2025-171R","EPOCH":"2026-09-11T15:46:26.913216","MEAN_MOTION":14.79928121,"ECCENTRICITY":0.00005256,"INCLINATION":51.9029,"RA_OF_ASC_NODE":53.2379,"ARG_OF_PERICENTER":107.1915,"MEAN_ANOMALY":252.9105,"EPHEMERIS_TYPE":0,"CLASSIFICATION_TYPE":"U","NORAD_CAT_ID":65147,"ELEMENT_SET_NO":999,"REV_AT_EPOCH":6046,"BSTAR":0.0003094155,"MEAN_MOTION_DOT":0.00002138,"MEAN_MOTION_DDOT":0}]